Zurück zum Katalog

CZ-6A DEB

AktivPO
NORAD 54294·DEBRIS·🇨🇳 China

Gestartet Nov 11, 2022 von Taiyuan Satellite Launch Center

Loading…

Nächste Überflüge (nächste 24 Stunden)

TLE

AktuellSource: Space-Track

Epoche: Sep 14, 2026, 06:41 UTC

1 54294U 22151AM  26257.27872570  .00003920  00000-0  55438-3 0  9997
2 54294  98.7596  10.8324 0109690 297.8006  61.2115 14.73717721204153

Verfolge CZ-6A DEB in Echtzeit mit AllMySat

Download on the App Store